Regional Weather Roundup
Issued by NWS

Home | Current Version | Previous Version | Graphics & Text | Print | Product List | Glossary Off
Versions: 1 2 3 4 5 6 7 8 9 10 11 12 13 14 15 16 17 18 19 20 21 22 23 24 25 26 27 28 29 30 31 32 33 34 35 36 37 38 39 40 41 42 43 44 45 46 47 48 49 50

000
ASUS43 KTOP 011559
RWRKS

WEATHER ROUNDUP FOR KANSAS
NATIONAL WEATHER SERVICE GOODLAND KS
1000 AM CST SUN MAR 01 2015

NOTE:  "FAIR" INDICATES FEW OR NO CLOUDS BELOW 12,000 FEET WITH NO
SIGNIFICANT WEATHER AND/OR OBSTRUCTIONS TO VISIBILITY.

KSZ001>006-013>018-027>032-041>047-011700-
NORTHWEST KANSAS

CITY           SKY/WX    TMP DP  RH WIND       PRES   REMARKS
GOODLAND       CLOUDY    24  18  77 N10       30.26R WCI  14
HAYS           FAIR      25  12  58 W5        30.36R
HILL CITY      MOSUNNY   24  18  77 CALM      30.35R
RUSSELL        MOSUNNY   24  19  81 NW5       30.36R
$$

KSZ061>065-074>080-084>089-011700-
SOUTHWEST KANSAS

CITY           SKY/WX    TMP DP  RH WIND       PRES   REMARKS
DODGE CITY     CLOUDY    23  19  85 CALM      30.33R FOG
ELKHART          N/A     22  19  89 N6          N/A
GARDEN CITY    CLOUDY    22  19  89 N3        30.31R FOG
GREAT BEND     PTSUNNY   23  16  74 NW3       30.38R
LIBERAL        CLOUDY    23  18  80 NE5       30.31R
$$

KSZ066>073-081>083-090>101-011700-
SOUTHEAST KANSAS

CITY           SKY/WX    TMP DP  RH WIND       PRES   REMARKS
CHANUTE        CLOUDY    27  22  81 NE5       30.41R
COFFEYVILLE    CLOUDY    27  23  85 N7        30.42S FOG
HUTCHINSON     PTSUNNY   25  19  78 W3        30.40R
MEDICINE LODGE   N/A     24  22  91 CALM      30.40R
NEWTON         CLOUDY    23  18  80 NW5       30.39S
PARSONS        CLOUDY    28  22  78 NE7       30.42R
WICHITA INTL   LGTSLEET  25  21  85 NW3       30.40R FOG
WICHITA JABRA  MIX PCPN  24  21  88 NW3       30.40R
WICHITA MCCONL CLOUDY    25  23  93 CALM      30.39R
WINFIELD       CLOUDY    26  22  84 NW6       30.41R
$$

KSZ007>012-019>026-033>040-048>060-102>105-011700-
NORTHEAST KANSAS

CITY           SKY/WX    TMP DP  RH WIND       PRES   REMARKS
CONCORDIA      CLOUDY    24  19  81 W6        30.39R
EMPORIA        FAIR      24  19  81 CALM      30.41R
LAWRENCE       CLOUDY    25  20  81 NW6       30.41S
MANHATTAN      SUNNY     27  19  72 VRB5      30.41S
OLATHE IND     MOSUNNY   24  20  84 NW7       30.40R
OLATHE EXE     PTSUNNY   26  19  74 N8        30.38R
SALINA         MOSUNNY   26  18  71 NW8       30.42R
TOPEKA BILLARD PTSUNNY   26  20  77 W6        30.42R
TOPEKA FORBES  CLOUDY    27  19  72 N7        30.39S
$$


USA.gov is the U.S. government's official web portal to all federal, state and local government web resources and services.